EUTE 8 WEST C (HB 6)

导读 | 星芒AI

EUTE 8 WEST C(HB 6)是一颗由欧洲通信卫星公司(Eutelsat)运营的通信卫星,定点于东经8度轨道位置。该卫星主要用于广播、电视传输及宽带通信服务,覆盖欧洲、非洲及部分亚洲地区。它搭载C波段和Ku波段转发器,提供高质量的信号传输能力,广泛服务于媒体和电信行业。EUTE 8 WEST C自发射以来,已成为欧洲地区重要的通信基础设施之一。

基本信息
目录编号:
27499
目录名称:
EUTE 8 WEST C (HB 6)
国际标识:
2002-038A
轨道中心:
EARTH
卫星名称:
EUTE 8 WEST C (HB 6)
卫星全名:
--
卫星状态:
在轨 (已飞行8472 天)
发射日期:
2002-08-21 UTC
国别 :
(EUTE)
星等 :
--
轨道信息
数据来源 国际轨道数据 AOE轨道数据
星历时间 2025-10-31T02:34:29+0800
19小时前
查看轨道信息
2025-10-31T08:00:00+0800
13小时前
查看轨道信息
半长轴 42433.823km 42433.852km
偏心率 0.0004335 0.0004447
轨道倾角 8.002° 8.002°
近地点辐角 185.753° 186.202°
升交点赤经 65.144° 65.140°
平近点角 160.219° 240.600°
近地点 36037.292km 36036.846km
远地点 36074.084km 36074.588km
周期 1449.866分钟 1449.868分钟
每日圈数 0.993195 0.993194
详细信息
使用方式:
暂无
2D轨道图
3D轨道图
轨道高度分析图
轨道倾角分析图
轨道综合分析图
查看轨道综合分析图